Theta_e
332 335 340 342 344 344 344 347 352 355 363 367 371 370 370 371 371 360 358 362 357 355 354 354 372 373 370 370 369 369 374 364 362
330 333 338 341 344 345 345 348 354 356 362 368 370 370 371 372 372 369 362 364 368 360 367 356 365 366 368 370 371 373 374 361 366
328 333 337 340 343 346 348 348 353 358 362 367 369 369 371 371 372 373 370 369 370 367 368 372 368 368 366 368 371 372 374 365 368
326 329 335 338 342 345 349 350 350 355 360 363 368 369 370 371 371 372 374 370 370 371 374 377 371 373 369 370 369 371 372 370 368
326 330 333 337 341 344 346 350 350 352 356 358 366 368 369 370 372 373 371 371 371 374 373 376 376 372 372 370 369 371 371 368 362
328 331 333 335 339 342 344 347 354 354 356 355 358 365 365 368 370 371 370 371 373 373 374 374 374 373 372 371 369 369 372 370 368
327 331 333 335 337 340 344 348 355 357 354 354 357 360 362 366 370 370 370 372 374 374 375 374 374 374 373 373 372 369 370 369 369
324 326 328 331 333 336 340 348 356 359 356 359 357 361 363 365 370 373 373 372 372 374 374 374 375 375 374 374 372 366 368 368 368
321 322 327 329 332 336 338 343 354 357 360 358 361 362 362 366 369 372 372 373 372 374 373 374 375 374 373 372 368 346 340 358 366
321 324 325 326 328 333 339 341 348 352 359 362 362 361 366 366 368 368 372 373 373 372 372 374 373 373 373 372 373 339 335 341 365
324 325 326 327 328 330 335 338 341 350 349 362 363 364 361 368 368 369 371 372 372 373 373 373 372 373 374 373 372 337 329 335 361
325 326 327 328 329 329 332 332 340 344 349 354 361 362 364 363 369 369 370 370 372 373 372 372 371 372 372 371 372 333 328 334 358
330 332 334 335 333 330 331 334 333 337 341 357 360 362 365 368 370 370 369 371 372 373 372 371 367 369 372 360 371 334 324 335 360
334 336 337 338 338 335 339 339 342 346 346 350 359 361 364 369 370 371 372 373 374 373 371 367 369 368 370 371 367 364 321 322 356
333 335 338 340 339 338 338 344 352 356 357 359 368 366 365 368 371 367 366 374 373 373 371 369 369 367 366 366 372 341 322 326 330
333 336 341 343 340 345 347 350 355 357 363 372 369 369 368 370 372 370 370 370 371 365 369 360 360 358 358 357 360 365 328 323 321
331 334 341 344 342 346 348 353 355 363 365 371 371 369 370 370 370 369 369 364 363 360 358 358 356 356 354 356 357 358 360 357 341
331 334 343 345 349 348 350 355 358 359 362 366 363 363 361 365 362 363 364 359 347 359 354 338 357 357 357 355 354 354 331 341 357
332 337 347 348 352 356 356 356 359 364 362 362 361 358 357 356 357 359 360 354 343 305 306 301 301 300 321 351 319 311 312 311 312
330 344 345 345 351 354 354 351 347 356 364 362 363 365 364 356 351 358 358 359 356 351 317 302 300 299 300 299 297 300 299 297 303
Wind_Speed
22 22 23 24 25 25 24 24 24 22 22 22 21 21 20 18 17 13 14 13 11 11 10 10 8 13 11 11 12 11 8 8 8
23 24 23 25 27 25 25 23 24 24 22 23 22 22 19 19 18 18 16 17 14 12 10 11 9 10 11 12 12 11 10 9 10
21 24 24 24 24 26 23 25 24 25 24 23 24 24 21 19 20 20 17 14 15 15 13 11 8 12 12 13 12 12 11 11 10
21 21 24 24 23 25 25 23 24 24 23 24 22 23 22 21 20 20 19 17 16 16 14 13 14 11 13 13 14 13 12 12 10
24 20 22 22 23 21 23 24 24 25 25 25 23 22 21 22 20 20 20 19 19 18 17 16 15 15 15 15 15 14 15 15 14
18 19 20 20 20 22 21 22 21 22 23 25 25 22 22 20 21 20 21 20 19 19 18 17 17 17 16 17 16 16 15 15 15
16 14 14 14 18 22 21 19 18 19 21 23 23 23 23 20 20 22 20 19 19 19 19 19 18 17 17 17 17 17 17 18 17
5 4 2 5 9 10 9 15 15 18 19 18 21 21 21 21 20 18 17 18 19 19 19 18 18 18 18 18 18 16 18 18 18
5 5 10 8 9 12 13 15 15 15 18 18 17 18 21 19 19 18 19 18 18 18 19 19 18 19 19 19 16 19 18 19 16
4 7 6 8 10 9 11 13 12 14 14 16 17 18 16 19 19 20 19 18 18 20 20 17 19 19 19 20 21 19 21 21 17
10 11 10 9 9 11 12 13 14 14 15 15 16 16 19 18 19 18 18 19 19 16 15 17 16 17 19 18 17 14 15 19 20
11 14 13 12 13 13 13 11 15 10 12 14 16 17 19 19 17 18 18 19 17 16 15 16 17 17 19 21 19 18 19 17 15
10 12 11 13 13 13 12 10 13 11 12 13 15 19 16 16 16 17 18 17 18 16 16 16 15 18 20 22 19 16 18 18 12
11 12 14 14 12 13 12 12 12 11 11 14 18 14 15 15 16 16 16 16 15 15 15 15 16 17 17 18 18 16 20 22 18
14 15 15 15 13 14 14 11 10 10 11 13 10 13 14 15 16 15 15 16 14 14 14 15 14 16 14 14 15 18 24 37 38
15 17 17 13 14 13 10 9 7 9 11 9 10 12 13 14 15 15 13 15 14 13 13 14 14 14 14 13 12 13 16 11 11
15 16 18 14 13 10 10 7 9 10 9 8 10 12 12 12 13 13 13 12 12 12 13 14 13 13 12 12 12 12 11 12 8
15 18 20 11 9 11 9 5 7 9 9 9 11 11 11 11 11 12 12 4 2 10 2 4 11 11 10 10 11 8 7 14 11
14 20 13 12 13 5 4 3 6 7 7 9 10 11 10 10 10 12 11 11 7 13 12 11 15 14 9 2 5 4 1 1 5
16 14 13 11 11 9 6 8 4 6 4 9 9 9 10 10 9 11 10 10 9 9 5 13 16 13 14 13 7 9 10 12 15
Wind_Direction
193 186 194 191 192 187 186 189 190 194 187 190 194 200 203 200 211 213 214 217 222 210 233 211 195 178 194 216 194 213 202 212 212
195 184 193 190 190 195 188 188 190 192 193 191 193 200 202 204 203 212 212 216 210 236 215 238 188 185 189 203 212 201 205 219 190
218 178 187 195 193 192 195 190 191 191 195 194 196 197 200 203 203 205 215 209 215 210 226 222 240 181 192 207 205 209 205 207 212
214 207 184 193 195 194 194 196 192 195 197 200 195 200 202 204 204 204 205 216 208 216 208 218 211 200 195 202 208 207 205 223 217
209 202 189 191 189 197 194 197 199 198 201 202 203 202 205 204 205 204 204 208 212 204 212 206 203 208 196 204 207 207 207 209 221
205 200 195 188 189 188 202 198 200 202 199 207 206 204 205 209 206 206 208 205 205 210 206 209 210 202 208 203 207 210 207 210 218
193 199 198 200 197 191 193 197 194 203 204 208 206 204 209 209 209 210 207 205 203 206 207 208 208 208 208 207 208 211 212 209 215
101 124 204 228 254 258 215 187 195 194 209 209 209 201 204 208 207 211 210 207 207 206 207 207 209 208 209 210 210 212 214 217 215
166 207 180 192 218 230 233 214 194 201 202 213 204 212 206 201 204 202 208 209 207 207 208 207 205 210 210 210 215 215 205 214 222
251 234 238 252 251 210 232 212 210 206 204 203 216 210 208 205 200 203 204 207 208 209 207 204 210 211 212 214 217 210 199 198 217
267 265 267 272 253 227 201 218 208 195 201 200 211 213 212 206 204 202 201 205 211 210 209 210 210 212 215 220 222 205 195 196 214
281 283 283 275 256 239 241 231 191 207 198 199 202 215 213 214 201 202 201 205 204 205 208 208 211 212 213 217 220 194 188 185 217
321 335 333 346 315 280 280 264 255 242 208 199 207 210 211 206 209 203 206 201 200 201 206 212 211 215 217 217 218 189 178 185 214
332 322 308 300 298 297 286 274 276 267 235 210 216 206 203 202 204 202 205 204 201 200 205 212 213 222 218 223 216 210 175 186 208
322 318 311 293 283 270 266 259 246 237 235 234 201 206 198 197 196 199 199 200 200 201 203 211 218 217 228 219 218 203 197 207 208
314 314 310 297 278 276 291 267 240 240 240 234 207 198 199 195 188 194 208 192 196 200 202 219 213 222 223 232 216 223 226 244 232
315 312 303 299 283 282 271 246 248 245 247 213 205 196 198 192 186 188 201 186 196 207 208 211 227 214 227 225 227 234 227 227 208
309 307 293 288 296 275 273 275 267 249 221 197 198 195 197 192 193 186 186 191 262 211 164 308 221 226 220 226 230 233 315 231 211
313 289 306 308 293 322 44 13 330 307 194 189 197 191 191 190 188 173 188 157 137 55 80 68 71 63 40 332 60 11 347 192 232
303 281 282 275 271 259 169 154 69 352 304 186 196 208 178 169 207 169 187 165 183 177 111 92 71 82 75 69 41 20 28 68 70